Time,TemperatureF,DewpointF,PressureIn,WindDirection,WindDirectionDegrees,WindSpeedMPH,WindSpeedGustMPH,Humidity,HourlyPrecipIn,Conditions,Clouds,dailyrainin,SoftwareType,DateUTC
2013-09-07 00:01:00,49.1,26.4,29.68,SE,146,0.0,0.0,41,0.00,,CLR,0.00,VWS V14.01,2013-09-07 04:01:00,
2013-09-07 00:02:00,49.1,26.4,29.68,SE,146,0.0,0.0,41,0.00,,CLR,0.00,VWS V14.01,2013-09-07 04:02:00,
2013-09-07 00:07:00,49.1,26.4,29.68,SE,146,0.0,0.0,41,0.00,,CLR,0.00,VWS V14.01,2013-09-07 04:07:00,
2013-09-07 00:12:00,49.1,27.0,29.68,SE,146,0.0,0.0,42,0.00,,CLR,0.00,VWS V14.01,2013-09-07 04:12:00,
2013-09-07 00:17:00,48.9,26.9,29.68,SE,146,0.0,0.0,42,0.00,,CLR,0.00,VWS V14.01,2013-09-07 04:17:00,
2013-09-07 00:22:00,48.9,26.9,29.68,SE,146,0.0,0.0,42,0.00,,CLR,0.00,VWS V14.01,2013-09-07 04:22:00,
2013-09-07 00:27:00,48.9,26.9,29.68,SE,146,0.0,0.0,42,0.00,,CLR,0.00,VWS V14.01,2013-09-07 04:27:00,
2013-09-07 00:32:00,48.7,27.3,29.68,SE,146,0.0,0.0,43,0.00,,CLR,0.00,VWS V14.01,2013-09-07 04:32:00,
2013-09-07 00:37:00,48.7,27.3,29.68,SE,146,0.0,0.0,43,0.00,,CLR,0.00,VWS V14.01,2013-09-07 04:37:00,
2013-09-07 00:42:00,48.7,27.3,29.68,SE,146,0.0,0.0,43,0.00,,CLR,0.00,VWS V14.01,2013-09-07 04:42:00,
2013-09-07 00:47:00,48.6,27.1,29.68,SE,146,0.0,0.0,43,0.00,,CLR,0.00,VWS V14.01,2013-09-07 04:47:00,
2013-09-07 00:52:00,48.6,27.1,29.68,SE,146,0.0,0.0,43,0.00,,CLR,0.00,VWS V14.01,2013-09-07 04:52:00,
2013-09-07 00:57:00,48.6,27.6,29.68,SE,146,0.0,0.0,44,0.00,,CLR,0.00,VWS V14.01,2013-09-07 04:57:00,
2013-09-07 01:02:00,48.4,27.5,29.68,SE,146,0.0,0.0,44,0.00,,CLR,0.00,VWS V14.01,2013-09-07 05:02:00,
2013-09-07 01:07:00,48.4,27.5,29.68,SE,146,0.0,0.0,44,0.00,,CLR,0.00,VWS V14.01,2013-09-07 05:07:00,
2013-09-07 01:12:00,48.4,27.5,29.68,SE,146,0.0,0.0,44,0.00,,CLR,0.00,VWS V14.01,2013-09-07 05:12:00,
2013-09-07 01:17:00,48.4,27.5,29.68,SE,146,0.0,0.0,44,0.00,,CLR,0.00,VWS V14.01,2013-09-07 05:17:00,
2013-09-07 01:22:00,48.4,27.5,29.68,SE,146,0.0,0.0,44,0.00,,CLR,0.00,VWS V14.01,2013-09-07 05:22:00,
2013-09-07 08:37:00,52.5,38.6,29.65,SE,146,0.0,0.0,59,0.00,,CLR,0.00,VWS V14.01,2013-09-07 12:37:00,
2013-09-07 08:42:00,53.1,39.1,29.65,SE,146,0.0,0.0,59,0.00,,CLR,0.00,VWS V14.01,2013-09-07 12:42:00,
2013-09-07 08:47:00,53.6,38.3,29.65,NW,311,0.0,0.0,56,0.00,,CLR,0.00,VWS V14.01,2013-09-07 12:47:00,
2013-09-07 08:52:00,54.3,34.5,29.65,NW,311,0.0,0.0,47,0.00,,CLR,0.00,VWS V14.01,2013-09-07 12:52:00,
2013-09-07 08:57:00,55.4,30.9,29.65,NW,311,0.0,0.0,39,0.00,,CLR,0.00,VWS V14.01,2013-09-07 12:57:00,
2013-09-07 09:02:00,56.3,30.4,29.65,NW,311,0.0,0.0,37,0.00,,CLR,0.00,VWS V14.01,2013-09-07 13:02:00,
2013-09-07 09:07:00,57.2,29.8,29.62,NW,311,0.0,0.0,35,0.00,,CLR,0.00,VWS V14.01,2013-09-07 13:07:00,
2013-09-07 09:12:00,58.1,24.3,29.62,NW,310,2.7,2.7,27,0.00,,CLR,0.00,VWS V14.01,2013-09-07 13:12:00,
2013-09-07 09:20:00,59.4,23.6,29.62,NW,306,0.0,0.0,25,0.00,,CLR,0.00,VWS V14.01,2013-09-07 13:20:00,
2013-09-07 09:25:00,60.4,24.5,29.65,NW,306,0.0,0.0,25,0.00,,CLR,0.00,VWS V14.01,2013-09-07 13:25:00,
2013-09-07 09:30:00,61.3,24.3,29.65,NW,306,0.0,0.0,24,0.00,,CLR,0.00,VWS V14.01,2013-09-07 13:30:00,
2013-09-07 09:35:00,61.7,24.6,29.65,NW,306,0.0,0.0,24,0.00,,CLR,0.00,VWS V14.01,2013-09-07 13:35:00,
2013-09-07 09:40:00,62.1,24.9,29.65,NW,306,0.0,0.0,24,0.00,,CLR,0.00,VWS V14.01,2013-09-07 13:40:00,
2013-09-07 09:45:00,62.2,21.9,29.65,NW,306,0.0,0.0,21,0.00,,CLR,0.00,VWS V14.01,2013-09-07 13:45:00,
2013-09-07 09:50:00,62.4,19.6,29.65,NW,306,0.0,3.6,19,0.00,,CLR,0.00,VWS V14.01,2013-09-07 13:50:00,
2013-09-07 09:55:00,63.0,22.5,29.65,NW,306,0.0,0.0,21,0.00,,CLR,0.00,VWS V14.01,2013-09-07 13:55:00,
2013-09-07 10:00:00,63.1,19.0,29.65,NW,306,0.0,0.0,18,0.00,,CLR,0.00,VWS V14.01,2013-09-07 14:00:00,
2013-09-07 10:05:00,63.7,19.4,29.65,NW,306,0.0,0.0,18,0.00,,CLR,0.00,VWS V14.01,2013-09-07 14:05:00,
2013-09-07 10:10:00,64.0,19.7,29.65,NW,306,0.0,0.0,18,0.00,,CLR,0.00,VWS V14.01,2013-09-07 14:10:00,
2013-09-07 10:15:00,64.4,20.0,29.65,NW,306,0.0,0.0,18,0.00,,CLR,0.00,VWS V14.01,2013-09-07 14:15:00,
2013-09-07 10:20:00,64.9,20.4,29.65,NW,306,0.0,0.0,18,0.00,,CLR,0.00,VWS V14.01,2013-09-07 14:20:00,
2013-09-07 10:25:00,65.5,20.9,29.65,ESE,104,0.0,0.0,18,0.00,,CLR,0.00,VWS V14.01,2013-09-07 14:25:00,
2013-09-07 10:30:00,66.4,17.4,29.65,SE,126,3.6,3.6,15,0.00,,CLR,0.00,VWS V14.01,2013-09-07 14:30:00,
2013-09-07 10:35:00,67.1,17.9,29.65,WNW,299,2.7,3.1,15,0.00,,CLR,0.00,VWS V14.01,2013-09-07 14:35:00,
2013-09-07 10:40:00,67.8,18.5,29.65,NE,53,0.0,0.0,15,0.00,,CLR,0.00,VWS V14.01,2013-09-07 14:40:00,
2013-09-07 10:45:00,68.4,19.0,29.65,NE,34,2.2,3.1,15,0.00,,CLR,0.00,VWS V14.01,2013-09-07 14:45:00,
2013-09-07 10:50:00,68.7,19.2,29.65,ESE,104,0.0,0.0,15,0.00,,CLR,0.00,VWS V14.01,2013-09-07 14:50:00,
2013-09-07 10:55:00,69.1,19.5,29.65,NE,36,2.7,2.7,15,0.00,,CLR,0.00,VWS V14.01,2013-09-07 14:55:00,
2013-09-07 11:00:00,69.3,19.7,29.65,ESE,114,0.0,0.0,15,0.00,,CLR,0.00,VWS V14.01,2013-09-07 15:00:00,
2013-09-07 11:05:00,69.6,20.0,29.65,East,96,0.0,0.0,15,0.00,,CLR,0.00,VWS V14.01,2013-09-07 15:05:00,
2013-09-07 11:10:00,70.0,18.6,29.62,NNW,327,2.7,2.7,14,0.00,,CLR,0.00,VWS V14.01,2013-09-07 15:10:00,
2013-09-07 11:15:00,70.5,19.1,29.62,SE,135,5.8,5.8,14,0.00,,CLR,0.00,VWS V14.01,2013-09-07 15:15:00,
2013-09-07 11:20:00,71.2,19.6,29.62,NW,326,3.1,3.1,14,0.00,,CLR,0.00,VWS V14.01,2013-09-07 15:20:00,
2013-09-07 11:25:00,71.6,19.9,29.62,NW,322,0.0,0.0,14,0.00,,CLR,0.00,VWS V14.01,2013-09-07 15:25:00,
2013-09-07 11:30:00,72.1,20.4,29.62,North,350,2.7,3.6,14,0.00,,CLR,0.00,VWS V14.01,2013-09-07 15:30:00,
2013-09-07 11:35:00,72.1,20.4,29.62,NNW,327,4.0,5.8,14,0.00,,CLR,0.00,VWS V14.01,2013-09-07 15:35:00,
2013-09-07 11:40:00,72.7,20.8,29.62,East,98,2.2,2.7,14,0.00,,CLR,0.00,VWS V14.01,2013-09-07 15:40:00,
2013-09-07 11:45:00,73.2,21.2,29.62,NNW,333,3.1,3.1,14,0.00,,CLR,0.00,VWS V14.01,2013-09-07 15:45:00,
2013-09-07 11:50:00,73.4,19.6,29.62,NW,326,2.7,3.1,13,0.00,,CLR,0.00,VWS V14.01,2013-09-07 15:50:00,
2013-09-07 11:55:00,73.8,19.9,29.62,West,263,2.7,3.1,13,0.00,,CLR,0.00,VWS V14.01,2013-09-07 15:55:00,
2013-09-07 12:00:00,74.5,20.5,29.62,ESE,120,2.2,2.2,13,0.00,,CLR,0.00,VWS V14.01,2013-09-07 16:00:00,
2013-09-07 12:05:00,75.2,21.0,29.62,NNW,341,0.0,0.0,13,0.00,,CLR,0.00,VWS V14.01,2013-09-07 16:05:00,
2013-09-07 12:10:00,75.7,21.5,29.62,ENE,59,0.0,0.0,13,0.00,,CLR,0.00,VWS V14.01,2013-09-07 16:10:00,
2013-09-07 12:15:00,75.9,21.6,29.62,ENE,65,0.0,0.0,13,0.00,,CLR,0.00,VWS V14.01,2013-09-07 16:15:00,
2013-09-07 12:20:00,76.5,22.0,29.62,SSE,154,0.0,0.0,13,0.00,,CLR,0.00,VWS V14.01,2013-09-07 16:20:00,
2013-09-07 12:25:00,76.6,22.1,29.59,SSE,150,2.7,2.7,13,0.00,,CLR,0.00,VWS V14.01,2013-09-07 16:25:00,
2013-09-07 12:30:00,76.3,21.9,29.59,SW,234,0.0,2.7,13,0.00,,CLR,0.00,VWS V14.01,2013-09-07 16:30:00,
2013-09-07 12:35:00,76.1,21.7,29.59,SSE,151,3.1,3.1,13,0.00,,CLR,0.00,VWS V14.01,2013-09-07 16:35:00,
2013-09-07 12:40:00,75.6,21.3,29.59,SE,133,0.0,0.0,13,0.00,,CLR,0.00,VWS V14.01,2013-09-07 16:40:00,
2013-09-07 12:45:00,75.7,21.5,29.59,SE,133,4.0,4.0,13,0.00,,CLR,0.00,VWS V14.01,2013-09-07 16:45:00,
2013-09-07 12:50:00,76.1,21.7,29.59,SE,130,2.7,2.7,13,0.00,,CLR,0.00,VWS V14.01,2013-09-07 16:50:00,
2013-09-07 12:55:00,76.5,22.0,29.56,South,177,4.0,4.0,13,0.00,,CLR,0.00,VWS V14.01,2013-09-07 16:55:00,
2013-09-07 13:00:00,77.0,22.4,29.56,NNE,22,0.0,0.0,13,0.00,,CLR,0.00,VWS V14.01,2013-09-07 17:00:00,
2013-09-07 13:05:00,77.4,22.7,29.56,SE,125,0.0,0.0,13,0.00,,CLR,0.00,VWS V14.01,2013-09-07 17:05:00,
2013-09-07 13:10:00,77.7,23.0,29.56,East,92,0.0,3.6,13,0.00,,CLR,0.00,VWS V14.01,2013-09-07 17:10:00,
2013-09-07 13:15:00,77.7,23.0,29.56,SSW,193,2.2,4.0,13,0.00,,CLR,0.00,VWS V14.01,2013-09-07 17:15:00,
2013-09-07 13:20:00,77.5,22.9,29.56,SSE,149,3.1,4.0,13,0.00,,CLR,0.00,VWS V14.01,2013-09-07 17:20:00,
2013-09-07 13:25:00,76.6,22.1,29.56,NE,54,2.2,2.7,13,0.00,,CLR,0.00,VWS V14.01,2013-09-07 17:25:00,
2013-09-07 13:30:00,76.6,22.1,29.56,SSE,168,2.7,6.3,13,0.00,,CLR,0.00,VWS V14.01,2013-09-07 17:30:00,
2013-09-07 13:35:00,77.2,22.6,29.56,ENE,76,0.0,0.0,13,0.00,,CLR,0.00,VWS V14.01,2013-09-07 17:35:00,
2013-09-07 13:40:00,77.7,23.0,29.56,ESE,115,0.0,2.2,13,0.00,,CLR,0.00,VWS V14.01,2013-09-07 17:40:00,
2013-09-07 13:45:00,78.1,23.3,29.56,SSE,154,5.8,5.8,13,0.00,,CLR,0.00,VWS V14.01,2013-09-07 17:45:00,
2013-09-07 13:50:00,77.5,22.9,29.56,NNW,333,2.2,2.7,13,0.00,,CLR,0.00,VWS V14.01,2013-09-07 17:50:00,
2013-09-07 13:55:00,77.5,22.9,29.56,ESE,120,3.1,3.6,13,0.00,,CLR,0.00,VWS V14.01,2013-09-07 17:55:00,
2013-09-07 14:00:00,77.9,23.1,29.56,ENE,64,0.0,3.6,13,0.00,,CLR,0.00,VWS V14.01,2013-09-07 18:00:00,
2013-09-07 14:05:00,78.1,23.3,29.56,ESE,106,0.0,0.0,13,0.00,,CLR,0.00,VWS V14.01,2013-09-07 18:05:00,
2013-09-07 14:10:00,78.4,23.6,29.53,NE,53,0.0,4.0,13,0.00,,CLR,0.00,VWS V14.01,2013-09-07 18:10:00,
2013-09-07 14:15:00,78.4,23.6,29.53,ESE,116,7.6,8.3,13,0.00,,CLR,0.00,VWS V14.01,2013-09-07 18:15:00,
2013-09-07 14:20:00,78.1,23.3,29.53,East,98,0.0,0.0,13,0.00,,CLR,0.00,VWS V14.01,2013-09-07 18:20:00,
2013-09-07 14:25:00,78.3,23.4,29.53,NE,40,3.6,3.6,13,0.00,,CLR,0.00,VWS V14.01,2013-09-07 18:25:00,
2013-09-07 14:30:00,78.1,23.3,29.53,NW,314,0.0,2.7,13,0.00,,CLR,0.00,VWS V14.01,2013-09-07 18:30:00,
2013-09-07 14:35:00,78.1,23.3,29.53,SE,141,0.0,0.0,13,0.00,,CLR,0.00,VWS V14.01,2013-09-07 18:35:00,
2013-09-07 14:40:00,77.9,23.1,29.53,NE,41,0.0,0.0,13,0.00,,CLR,0.00,VWS V14.01,2013-09-07 18:40:00,
2013-09-07 14:45:00,77.9,23.1,29.53,ESE,119,0.0,4.5,13,0.00,,CLR,0.00,VWS V14.01,2013-09-07 18:45:00,
2013-09-07 14:50:00,77.9,23.1,29.53,SE,145,3.6,3.6,13,0.00,,CLR,0.00,VWS V14.01,2013-09-07 18:50:00,
2013-09-07 14:55:00,77.7,23.0,29.53,SE,141,4.0,8.1,13,0.00,,CLR,0.00,VWS V14.01,2013-09-07 18:55:00,
2013-09-07 15:00:00,77.5,22.9,29.53,NE,51,0.0,2.7,13,0.00,,CLR,0.00,VWS V14.01,2013-09-07 19:00:00,
2013-09-07 15:05:00,77.9,23.1,29.53,East,92,0.0,0.0,13,0.00,,CLR,0.00,VWS V14.01,2013-09-07 19:05:00,
2013-09-07 15:10:00,78.3,23.4,29.50,ENE,78,0.0,3.6,13,0.00,,CLR,0.00,VWS V14.01,2013-09-07 19:10:00,
2013-09-07 15:15:00,78.3,23.4,29.50,ESE,110,4.0,6.3,13,0.00,,CLR,0.00,VWS V14.01,2013-09-07 19:15:00,
2013-09-07 15:20:00,77.7,23.0,29.50,SE,144,5.4,8.7,13,0.00,,CLR,0.00,VWS V14.01,2013-09-07 19:20:00,
2013-09-07 15:25:00,77.4,22.7,29.50,SSW,209,2.2,2.2,13,0.00,,CLR,0.00,VWS V14.01,2013-09-07 19:25:00,
2013-09-07 15:30:00,77.7,23.0,29.50,South,191,0.0,0.0,13,0.00,,CLR,0.00,VWS V14.01,2013-09-07 19:30:00,
2013-09-07 15:35:00,77.9,23.1,29.50,SE,132,3.1,6.3,13,0.00,,CLR,0.00,VWS V14.01,2013-09-07 19:35:00,
2013-09-07 15:40:00,77.9,23.1,29.50,East,96,0.0,0.0,13,0.00,,CLR,0.00,VWS V14.01,2013-09-07 19:40:00,
2013-09-07 15:45:00,77.7,23.0,29.50,ESE,115,5.4,5.4,13,0.00,,CLR,0.00,VWS V14.01,2013-09-07 19:45:00,
2013-09-07 15:50:00,77.4,22.7,29.50,ESE,118,0.0,0.0,13,0.00,,CLR,0.00,VWS V14.01,2013-09-07 19:50:00,
2013-09-07 15:55:00,77.2,22.6,29.50,SSE,153,3.1,4.9,13,0.00,,CLR,0.00,VWS V14.01,2013-09-07 19:55:00,
2013-09-07 16:00:00,77.2,22.6,29.50,SSE,157,4.0,4.0,13,0.00,,CLR,0.00,VWS V14.01,2013-09-07 20:00:00,
2013-09-07 16:05:00,77.0,22.4,29.50,East,79,0.0,2.7,13,0.00,,CLR,0.00,VWS V14.01,2013-09-07 20:05:00,
2013-09-07 16:10:00,76.8,22.3,29.50,SE,144,0.0,0.0,13,0.00,,CLR,0.00,VWS V14.01,2013-09-07 20:10:00,
2013-09-07 16:15:00,76.8,22.3,29.50,SSE,152,3.6,3.6,13,0.00,,CLR,0.00,VWS V14.01,2013-09-07 20:15:00,
2013-09-07 16:20:00,76.8,22.3,29.50,SE,144,0.0,0.0,13,0.00,,CLR,0.00,VWS V14.01,2013-09-07 20:20:00,
2013-09-07 16:25:00,76.6,22.1,29.50,SE,134,0.0,2.2,13,0.00,,CLR,0.00,VWS V14.01,2013-09-07 20:25:00,
2013-09-07 16:30:00,76.5,22.0,29.50,ENE,59,0.0,0.0,13,0.00,,CLR,0.00,VWS V14.01,2013-09-07 20:30:00,
2013-09-07 16:35:00,76.6,22.1,29.50,East,82,0.0,2.2,13,0.00,,CLR,0.00,VWS V14.01,2013-09-07 20:35:00,
2013-09-07 16:40:00,76.6,22.1,29.50,SSE,148,5.4,5.4,13,0.00,,CLR,0.00,VWS V14.01,2013-09-07 20:40:00,
2013-09-07 16:45:00,76.5,22.0,29.50,SSE,151,0.0,0.0,13,0.00,,CLR,0.00,VWS V14.01,2013-09-07 20:45:00,
2013-09-07 16:50:00,76.3,21.9,29.50,SSE,150,0.0,0.0,13,0.00,,CLR,0.00,VWS V14.01,2013-09-07 20:50:00,
2013-09-07 16:55:00,76.5,22.0,29.50,SE,130,3.6,3.6,13,0.00,,CLR,0.00,VWS V14.01,2013-09-07 20:55:00,
2013-09-07 17:00:00,76.3,21.9,29.50,SE,140,4.0,4.5,13,0.00,,CLR,0.00,VWS V14.01,2013-09-07 21:00:00,
2013-09-07 17:05:00,75.9,21.6,29.50,ESE,115,3.6,5.8,13,0.00,,CLR,0.00,VWS V14.01,2013-09-07 21:05:00,
2013-09-07 17:10:00,75.6,21.3,29.50,SE,145,0.0,0.0,13,0.00,,CLR,0.00,VWS V14.01,2013-09-07 21:10:00,
2013-09-07 17:15:00,75.2,21.0,29.50,SE,140,0.0,0.0,13,0.00,,CLR,0.00,VWS V14.01,2013-09-07 21:15:00,
2013-09-07 17:20:00,75.0,20.9,29.50,ESE,109,3.1,4.0,13,0.00,,CLR,0.00,VWS V14.01,2013-09-07 21:20:00,
2013-09-07 17:25:00,74.7,20.6,29.50,SSE,153,0.0,0.0,13,0.00,,CLR,0.00,VWS V14.01,2013-09-07 21:25:00,
2013-09-07 17:30:00,74.3,20.3,29.50,SE,138,0.0,0.0,13,0.00,,CLR,0.00,VWS V14.01,2013-09-07 21:30:00,
2013-09-07 17:35:00,73.9,20.0,29.50,SE,146,0.0,0.0,13,0.00,,CLR,0.00,VWS V14.01,2013-09-07 21:35:00,
2013-09-07 17:40:00,73.6,19.8,29.47,SE,133,0.0,0.0,13,0.00,,CLR,0.00,VWS V14.01,2013-09-07 21:40:00,
2013-09-07 17:45:00,73.4,19.6,29.47,SE,143,0.0,0.0,13,0.00,,CLR,0.00,VWS V14.01,2013-09-07 21:45:00,
2013-09-07 17:50:00,73.0,21.1,29.47,SE,143,0.0,0.0,14,0.00,,CLR,0.00,VWS V14.01,2013-09-07 21:50:00,
2013-09-07 17:55:00,72.7,20.8,29.47,SE,143,0.0,0.0,14,0.00,,CLR,0.00,VWS V14.01,2013-09-07 21:55:00,
2013-09-07 18:00:00,72.3,20.5,29.47,SE,143,0.0,0.0,14,0.00,,CLR,0.00,VWS V14.01,2013-09-07 22:00:00,
2013-09-07 18:05:00,71.8,20.1,29.47,SE,143,0.0,0.0,14,0.00,,CLR,0.00,VWS V14.01,2013-09-07 22:05:00,
2013-09-07 18:10:00,71.4,19.8,29.47,SE,143,0.0,0.0,14,0.00,,CLR,0.00,VWS V14.01,2013-09-07 22:10:00,
2013-09-07 18:15:00,71.2,19.6,29.47,SE,143,0.0,0.0,14,0.00,,CLR,0.00,VWS V14.01,2013-09-07 22:15:00,
2013-09-07 18:20:00,70.9,19.4,29.47,SE,143,0.0,0.0,14,0.00,,CLR,0.00,VWS V14.01,2013-09-07 22:20:00,
2013-09-07 18:25:00,70.5,19.1,29.47,SE,143,0.0,0.0,14,0.00,,CLR,0.00,VWS V14.01,2013-09-07 22:25:00,
2013-09-07 18:30:00,70.3,18.9,29.47,SE,143,0.0,0.0,14,0.00,,CLR,0.00,VWS V14.01,2013-09-07 22:30:00,
2013-09-07 18:35:00,70.2,18.8,29.47,SE,143,0.0,0.0,14,0.00,,CLR,0.00,VWS V14.01,2013-09-07 22:35:00,
2013-09-07 18:40:00,70.0,18.6,29.47,SE,143,0.0,0.0,14,0.00,,CLR,0.00,VWS V14.01,2013-09-07 22:40:00,
2013-09-07 18:45:00,69.8,18.5,29.47,SE,143,0.0,0.0,14,0.00,,CLR,0.00,VWS V14.01,2013-09-07 22:45:00,
2013-09-07 18:50:00,69.8,18.5,29.47,SE,146,0.0,0.0,14,0.00,,CLR,0.00,VWS V14.01,2013-09-07 22:50:00,
2013-09-07 18:55:00,69.6,20.0,29.47,SE,146,0.0,0.0,15,0.00,,CLR,0.00,VWS V14.01,2013-09-07 22:55:00,
2013-09-07 19:00:00,69.6,20.0,29.47,SE,146,0.0,0.0,15,0.00,,CLR,0.00,VWS V14.01,2013-09-07 23:00:00,
2013-09-07 19:05:00,69.6,20.0,29.47,SE,146,0.0,0.0,15,0.00,,CLR,0.00,VWS V14.01,2013-09-07 23:05:00,
2013-09-07 19:10:00,69.4,19.8,29.47,SE,146,0.0,0.0,15,0.00,,CLR,0.00,VWS V14.01,2013-09-07 23:10:00,
2013-09-07 19:15:00,69.1,22.5,29.47,SE,146,0.0,0.0,17,0.00,,CLR,0.00,VWS V14.01,2013-09-07 23:15:00,
2013-09-07 19:20:00,68.7,22.2,29.47,SE,146,0.0,0.0,17,0.00,,CLR,0.00,VWS V14.01,2013-09-07 23:20:00,
2013-09-07 19:25:00,68.4,21.9,29.47,SE,146,0.0,0.0,17,0.00,,CLR,0.00,VWS V14.01,2013-09-07 23:25:00,
2013-09-07 19:30:00,68.0,21.6,29.47,SE,146,0.0,0.0,17,0.00,,CLR,0.00,VWS V14.01,2013-09-07 23:30:00,
2013-09-07 19:35:00,67.8,21.5,29.47,SE,146,0.0,0.0,17,0.00,,CLR,0.00,VWS V14.01,2013-09-07 23:35:00,
2013-09-07 19:40:00,67.6,21.3,29.47,SE,146,0.0,0.0,17,0.00,,CLR,0.00,VWS V14.01,2013-09-07 23:40:00,
2013-09-07 19:45:00,67.5,21.2,29.47,SE,146,0.0,0.0,17,0.00,,CLR,0.00,VWS V14.01,2013-09-07 23:45:00,
2013-09-07 19:50:00,67.1,20.9,29.47,SE,146,0.0,0.0,17,0.00,,CLR,0.00,VWS V14.01,2013-09-07 23:50:00,
2013-09-07 19:55:00,66.9,24.6,29.47,SE,146,0.0,0.0,20,0.00,,CLR,0.00,VWS V14.01,2013-09-07 23:55:00,
2013-09-07 20:00:00,66.7,24.4,29.47,SE,146,0.0,0.0,20,0.00,,CLR,0.00,VWS V14.01,2013-09-08 00:00:00,
2013-09-07 20:05:00,66.7,24.4,29.47,SE,146,0.0,0.0,20,0.00,,CLR,0.00,VWS V14.01,2013-09-08 00:05:00,
2013-09-07 20:10:00,66.6,24.3,29.47,SE,146,0.0,0.0,20,0.00,,CLR,0.00,VWS V14.01,2013-09-08 00:10:00,
2013-09-07 20:15:00,66.4,24.1,29.47,SE,146,0.0,0.0,20,0.00,,CLR,0.00,VWS V14.01,2013-09-08 00:15:00,
2013-09-07 20:20:00,66.2,26.3,29.47,SE,146,0.0,0.0,22,0.00,,CLR,0.00,VWS V14.01,2013-09-08 00:20:00,
2013-09-07 20:25:00,66.0,27.2,29.47,SE,146,0.0,0.0,23,0.00,,CLR,0.00,VWS V14.01,2013-09-08 00:25:00,
2013-09-07 20:30:00,65.8,27.0,29.47,SE,146,0.0,0.0,23,0.00,,CLR,0.00,VWS V14.01,2013-09-08 00:30:00,
2013-09-07 20:35:00,65.7,26.9,29.47,SE,146,0.0,0.0,23,0.00,,CLR,0.00,VWS V14.01,2013-09-08 00:35:00,
2013-09-07 20:40:00,65.7,26.9,29.47,SE,146,0.0,0.0,23,0.00,,CLR,0.00,VWS V14.01,2013-09-08 00:40:00,
2013-09-07 20:45:00,65.5,26.7,29.47,SE,146,0.0,0.0,23,0.00,,CLR,0.00,VWS V14.01,2013-09-08 00:45:00,
2013-09-07 20:50:00,65.3,26.6,29.47,SE,146,0.0,0.0,23,0.00,,CLR,0.00,VWS V14.01,2013-09-08 00:50:00,
2013-09-07 20:55:00,65.3,26.6,29.47,SE,146,0.0,0.0,23,0.00,,CLR,0.00,VWS V14.01,2013-09-08 00:55:00,
2013-09-07 21:00:00,65.1,26.4,29.47,SE,146,0.0,0.0,23,0.00,,CLR,0.00,VWS V14.01,2013-09-08 01:00:00,
2013-09-07 21:05:00,64.9,26.3,29.47,SE,146,0.0,0.0,23,0.00,,CLR,0.00,VWS V14.01,2013-09-08 01:05:00,
2013-09-07 21:10:00,64.8,26.1,29.47,SE,146,0.0,0.0,23,0.00,,CLR,0.00,VWS V14.01,2013-09-08 01:10:00,
2013-09-07 21:15:00,64.6,27.0,29.47,SE,146,0.0,0.0,24,0.00,,CLR,0.00,VWS V14.01,2013-09-08 01:15:00,
2013-09-07 21:20:00,64.4,26.9,29.47,SE,146,0.0,0.0,24,0.00,,CLR,0.00,VWS V14.01,2013-09-08 01:20:00,
2013-09-07 21:25:00,64.4,26.9,29.47,SE,146,0.0,0.0,24,0.00,,CLR,0.00,VWS V14.01,2013-09-08 01:25:00,
2013-09-07 21:30:00,64.2,26.7,29.47,SE,146,0.0,0.0,24,0.00,,CLR,0.00,VWS V14.01,2013-09-08 01:30:00,
2013-09-07 21:35:00,64.2,26.7,29.47,SE,146,0.0,0.0,24,0.00,,CLR,0.00,VWS V14.01,2013-09-08 01:35:00,
2013-09-07 21:40:00,64.2,26.7,29.47,SE,146,0.0,0.0,24,0.00,,CLR,0.00,VWS V14.01,2013-09-08 01:40:00,
2013-09-07 21:45:00,64.2,27.7,29.47,SE,146,0.0,0.0,25,0.00,,CLR,0.00,VWS V14.01,2013-09-08 01:45:00,
2013-09-07 21:50:00,64.2,27.7,29.47,SE,146,0.0,0.0,25,0.00,,CLR,0.00,VWS V14.01,2013-09-08 01:50:00,
2013-09-07 21:55:00,64.2,27.7,29.47,SE,146,0.0,0.0,25,0.00,,CLR,0.00,VWS V14.01,2013-09-08 01:55:00,
2013-09-07 22:00:00,64.0,27.5,29.47,SE,146,0.0,0.0,25,0.00,,CLR,0.00,VWS V14.01,2013-09-08 02:00:00,
2013-09-07 22:05:00,64.0,27.5,29.47,SE,146,0.0,0.0,25,0.00,,CLR,0.00,VWS V14.01,2013-09-08 02:05:00,
2013-09-07 22:10:00,64.0,27.5,29.47,SE,146,0.0,0.0,25,0.00,,CLR,0.00,VWS V14.01,2013-09-08 02:10:00,
2013-09-07 22:15:00,64.0,27.5,29.47,SE,146,0.0,0.0,25,0.00,,CLR,0.00,VWS V14.01,2013-09-08 02:15:00,
2013-09-07 22:20:00,64.0,27.5,29.47,SE,146,0.0,0.0,25,0.00,,CLR,0.00,VWS V14.01,2013-09-08 02:20:00,
2013-09-07 22:25:00,63.9,27.4,29.47,SE,146,0.0,0.0,25,0.00,,CLR,0.00,VWS V14.01,2013-09-08 02:25:00,
2013-09-07 22:30:00,63.9,27.4,29.47,SE,146,0.0,0.0,25,0.00,,CLR,0.00,VWS V14.01,2013-09-08 02:30:00,
2013-09-07 22:35:00,63.9,28.3,29.47,SE,146,0.0,0.0,26,0.00,,CLR,0.00,VWS V14.01,2013-09-08 02:35:00,
2013-09-07 22:40:00,63.9,28.3,29.47,SE,146,0.0,0.0,26,0.00,,CLR,0.00,VWS V14.01,2013-09-08 02:40:00,
2013-09-07 22:45:00,63.9,28.3,29.47,SE,146,0.0,0.0,26,0.00,,CLR,0.00,VWS V14.01,2013-09-08 02:45:00,
2013-09-07 22:50:00,63.9,28.3,29.47,SE,146,0.0,0.0,26,0.00,,CLR,0.00,VWS V14.01,2013-09-08 02:50:00,
2013-09-07 22:55:00,63.9,28.3,29.47,SE,146,0.0,0.0,26,0.00,,CLR,0.00,VWS V14.01,2013-09-08 02:55:00,
2013-09-07 23:00:00,63.9,28.3,29.47,SE,146,0.0,0.0,26,0.00,,CLR,0.00,VWS V14.01,2013-09-08 03:00:00,
2013-09-07 23:05:00,63.9,28.3,29.47,SE,146,0.0,0.0,26,0.00,,BKN120,0.00,VWS V14.01,2013-09-08 03:05:00,
2013-09-07 23:10:00,63.9,28.3,29.47,SE,146,0.0,0.0,26,0.00,,BKN120,0.00,VWS V14.01,2013-09-08 03:10:00,
2013-09-07 23:15:00,63.9,28.3,29.47,SE,146,0.0,0.0,26,0.00,,BKN120,0.00,VWS V14.01,2013-09-08 03:15:00,
2013-09-07 23:20:00,63.7,28.2,29.47,SE,146,0.0,0.0,26,0.00,,BKN120,0.00,VWS V14.01,2013-09-08 03:20:00,
2013-09-07 23:25:00,63.7,28.2,29.47,SE,146,0.0,0.0,26,0.00,,BKN120,0.00,VWS V14.01,2013-09-08 03:25:00,
2013-09-07 23:30:00,63.7,28.2,29.47,SE,146,0.0,0.0,26,0.00,,BKN120,0.00,VWS V14.01,2013-09-08 03:30:00,
2013-09-07 23:35:00,63.7,28.2,29.47,SE,146,0.0,0.0,26,0.00,,BKN120,0.00,VWS V14.01,2013-09-08 03:35:00,
2013-09-07 23:40:00,63.7,28.2,29.47,SE,146,0.0,0.0,26,0.00,,BKN120,0.00,VWS V14.01,2013-09-08 03:40:00,
2013-09-07 23:45:00,63.7,28.2,29.47,SE,146,0.0,0.0,26,0.00,,BKN120,0.00,VWS V14.01,2013-09-08 03:45:00,
2013-09-07 23:50:00,63.5,29.0,29.47,SE,146,0.0,0.0,27,0.00,,BKN120,0.00,VWS V14.01,2013-09-08 03:50:00,
2013-09-07 23:55:00,63.5,29.0,29.44,SE,146,0.0,0.0,27,0.00,,BKN120,0.00,VWS V14.01,2013-09-08 03:55:00,